Weather History for Clinton, MO

Change the Weather History Date:

Sunday, August 18, 2013

  Actual Average (KSZL) Record (KSZL)
Temperature  
Mean Temperature 70 °F -  
Max Temperature 82 °F 86 °F 104 °F (2003)
Min Temperature 57 °F 66 °F 51 °F (2012)
Cooling Degree Days 4    
Growing Degree Days 20 (Base 50)    
Moisture  
Dew Point 62 °F    
Average Humidity 76    
Maximum Humidity 100    
Minimum Humidity 48    
Precipitation  
Precipitation 0.00 in - - ()
Sea Level Pressure  
Sea Level Pressure 30.14 in    
Wind  
Wind Speed 1 mph (ESE)    
Max Wind Speed 8 mph    
Max Gust Speed -    
Visibility 8 miles    
Events      
Averages and records for this station are not official NWS values.
T = Trace of Precipitation, MM = Missing Value Source: NWS Daily Summary

Daily Weather History Graph

Daily Weather History Graph

Search for Another Location

Airport:

Trip Planner

Search our weather history database for the weather conditions in past years. The results will help you decide how hot, cold, wet, or windy it might be!

Date:

Astronomy

Aug. 18, 2013 Rise Set
Actual Time 6:32 AM CDT 8:04 PM CDT
Civil Twilight 6:04 AM CDT 8:32 PM CDT
Nautical Twilight 5:30 AM CDT 9:05 PM CDT
Astronomical Twilight 4:54 AM CDT 9:41 PM CDT
Moon 6:10 PM CDT (8/18) 3:43 AM CDT (8/18)
Length of Visible Light 14h 27m
Length of Day
13h 32m
Waxing Gibbous, 92% of the Moon is Illuminated
Aug 18
Waxing Gibbous
Aug 20
Full
Aug 28
Last Quarter
Sep 5
New
Sep 12
First Quarter

Hourly Weather History & Observations

Time (CDT) Temp. Heat Index Dew Point Humidity Pressure Visibility Wind Dir Wind Speed Gust Speed Precip Events Conditions
12:15 AM 62.6 °F - 60.8 °F 94% 30.14 in 8.0 mi Calm Calm - N/A   Clear
12:35 AM 60.8 °F - 59.0 °F 94% 30.14 in 7.0 mi Calm Calm - N/A   Clear
12:55 AM 60.8 °F - 60.8 °F 100% 30.14 in 7.0 mi Calm Calm - N/A   Clear
1:15 AM 60.8 °F - 59.0 °F 94% 30.14 in 7.0 mi Calm Calm - N/A   Clear
1:35 AM 60.8 °F - 59.0 °F 94% 30.14 in 7.0 mi Calm Calm - N/A   Clear
1:55 AM 60.8 °F - 59.0 °F 94% 30.14 in 7.0 mi Calm Calm - N/A   Clear
2:15 AM 60.8 °F - 59.0 °F 94% 30.14 in 7.0 mi Calm Calm - N/A   Clear
2:35 AM 60.8 °F - 59.0 °F 94% 30.14 in 7.0 mi Calm Calm - N/A   Clear
2:55 AM 60.8 °F - 59.0 °F 94% 30.14 in 7.0 mi Calm Calm - N/A   Clear
3:15 AM 57.2 °F - 57.2 °F 100% 30.14 in 5.0 mi Calm Calm - N/A   Clear
3:35 AM 59.0 °F - 57.2 °F 94% 30.14 in 7.0 mi Calm Calm - N/A   Mostly Cloudy
3:55 AM 60.8 °F - 57.2 °F 88% 30.14 in 8.0 mi Calm Calm - N/A   Scattered Clouds
4:15 AM 60.8 °F - 59.0 °F 94% 30.14 in 7.0 mi Calm Calm - N/A   Mostly Cloudy
4:35 AM 60.8 °F - 60.8 °F 100% 30.15 in 8.0 mi Calm Calm - N/A   Mostly Cloudy
4:55 AM 60.8 °F - 59.0 °F 94% 30.14 in 8.0 mi Calm Calm - N/A   Partly Cloudy
5:15 AM 60.8 °F - 59.0 °F 94% 30.15 in 8.0 mi Calm Calm - N/A   Clear
5:35 AM 60.8 °F - 57.2 °F 88% 30.15 in 7.0 mi Calm Calm - N/A   Partly Cloudy
5:55 AM 59.0 °F - 57.2 °F 94% 30.15 in 7.0 mi Calm Calm - N/A   Partly Cloudy
6:15 AM 59.0 °F - 57.2 °F 94% 30.15 in 7.0 mi Calm Calm - N/A   Clear
6:35 AM 57.2 °F - 57.2 °F 100% 30.15 in 7.0 mi Calm Calm - N/A   Clear
6:55 AM 57.2 °F - 57.2 °F 100% 30.16 in 5.0 mi Calm Calm - N/A   Clear
7:15 AM 59.0 °F - 57.2 °F 94% 30.16 in 5.0 mi Calm Calm - N/A   Clear
7:35 AM 60.8 °F - 59.0 °F 94% 30.17 in 5.0 mi Calm Calm - N/A   Clear
7:55 AM 62.6 °F - 60.8 °F 94% 30.17 in 7.0 mi Calm Calm - N/A   Clear
8:15 AM 64.4 °F - 62.6 °F 94% 30.18 in 7.0 mi Calm Calm - N/A   Clear
8:35 AM 64.4 °F - 62.6 °F 94% 30.18 in 7.0 mi Calm Calm - N/A   Clear
8:55 AM 68.0 °F - 64.4 °F 88% 30.18 in 7.0 mi ESE 3.5 mph - N/A   Clear
9:15 AM 69.8 °F - 64.4 °F 83% 30.18 in 8.0 mi ESE 3.5 mph - N/A   Light Drizzle
9:35 AM 71.6 °F - 64.4 °F 78% 30.19 in 8.0 mi South 4.6 mph - N/A   Clear
9:55 AM 73.4 °F - 64.4 °F 73% 30.19 in 8.0 mi ESE 4.6 mph - N/A   Clear
10:35 AM 75.2 °F - 64.4 °F 69% 30.19 in 10.0 mi SSE 3.5 mph - N/A   Clear
10:55 AM 75.2 °F - 62.6 °F 65% 30.18 in 9.0 mi Calm Calm - N/A   Clear
11:15 AM 77.0 °F - 64.4 °F 65% 30.18 in 10.0 mi Calm Calm - N/A   Clear
11:35 AM 78.8 °F - 64.4 °F 61% 30.18 in 9.0 mi Calm Calm - N/A   Clear
11:55 AM 78.8 °F - 64.4 °F 61% 30.17 in 10.0 mi ESE 3.5 mph - N/A   Partly Cloudy
12:15 PM 78.8 °F - 62.6 °F 57% 30.17 in 10.0 mi ENE 6.9 mph - N/A   Mostly Cloudy
12:35 PM 78.8 °F - 60.8 °F 54% 30.17 in 10.0 mi Calm Calm - N/A   Scattered Clouds
12:55 PM 78.8 °F - 60.8 °F 54% 30.17 in 10.0 mi Calm Calm - N/A   Scattered Clouds
1:15 PM 78.8 °F - 62.6 °F 57% 30.16 in 9.0 mi ESE 3.5 mph - N/A   Scattered Clouds
1:35 PM 78.8 °F - 62.6 °F 57% 30.15 in 10.0 mi SE 3.5 mph - N/A   Mostly Cloudy
1:55 PM 78.8 °F - 62.6 °F 57% 30.15 in 10.0 mi East 4.6 mph - N/A   Scattered Clouds
2:15 PM 80.6 °F 81.5 °F 60.8 °F 51% 30.14 in 9.0 mi ESE 4.6 mph - N/A   Scattered Clouds
2:35 PM 80.6 °F 81.5 °F 60.8 °F 51% 30.14 in 10.0 mi East 6.9 mph - N/A   Scattered Clouds
2:55 PM 80.6 °F 81.8 °F 62.6 °F 54% 30.13 in 8.0 mi ESE 6.9 mph - N/A   Scattered Clouds
3:15 PM 80.6 °F 81.5 °F 60.8 °F 51% 30.12 in 9.0 mi Calm Calm - N/A   Scattered Clouds
3:35 PM 80.6 °F 81.8 °F 62.6 °F 54% 30.12 in 10.0 mi East 6.9 mph - N/A   Mostly Cloudy
3:55 PM 82.4 °F 82.9 °F 60.8 °F 48% 30.12 in 9.0 mi ESE 4.6 mph - N/A   Mostly Cloudy
4:15 PM 80.6 °F 81.8 °F 62.6 °F 54% 30.11 in 10.0 mi SE 8.1 mph - N/A   Mostly Cloudy
4:35 PM 82.4 °F 83.4 °F 62.6 °F 51% 30.11 in 9.0 mi Calm Calm - N/A   Scattered Clouds
4:55 PM 82.4 °F 83.4 °F 62.6 °F 51% 30.10 in 9.0 mi Calm Calm - N/A   Clear
5:15 PM 80.6 °F 81.5 °F 60.8 °F 51% 30.10 in 10.0 mi SE 3.5 mph - N/A   Partly Cloudy
5:35 PM 80.6 °F 81.5 °F 60.8 °F 51% 30.10 in 10.0 mi Calm Calm - N/A   Clear
5:55 PM 80.6 °F 81.5 °F 60.8 °F 51% 30.10 in 10.0 mi SE 8.1 mph - N/A   Clear
6:15 PM 80.6 °F 81.5 °F 60.8 °F 51% 30.09 in 10.0 mi SE 3.5 mph - N/A   Clear
6:35 PM 80.6 °F 81.8 °F 62.6 °F 54% 30.09 in 10.0 mi SSE 4.6 mph - N/A   Clear
6:55 PM 80.6 °F 82.3 °F 64.4 °F 58% 30.09 in 10.0 mi Calm Calm - N/A   Clear
7:15 PM 80.6 °F 82.3 °F 64.4 °F 58% 30.09 in 9.0 mi ESE 4.6 mph - N/A   Clear
7:35 PM 78.8 °F - 64.4 °F 61% 30.10 in 9.0 mi Calm Calm - N/A   Clear
7:55 PM 78.8 °F - 66.2 °F 65% 30.10 in 9.0 mi Calm Calm - N/A   Clear
8:15 PM 75.2 °F - 66.2 °F 73% 30.10 in 10.0 mi Calm Calm - N/A   Clear
8:35 PM 73.4 °F - 66.2 °F 78% 30.10 in 10.0 mi Calm Calm - N/A   Clear
8:55 PM 73.4 °F - 64.4 °F 73% 30.10 in 10.0 mi Calm Calm - N/A   Clear
9:15 PM 69.8 °F - 64.4 °F 83% 30.11 in 10.0 mi ESE 3.5 mph - N/A   Clear
9:35 PM 71.6 °F - 64.4 °F 78% 30.11 in 9.0 mi Calm Calm - N/A   Clear
9:55 PM 69.8 °F - 64.4 °F 83% 30.11 in 9.0 mi Calm Calm - N/A   Clear
10:15 PM 69.8 °F - 64.4 °F 83% 30.11 in 9.0 mi Calm Calm - N/A   Clear
10:35 PM 68.0 °F - 64.4 °F 88% 30.11 in 8.0 mi Calm Calm - N/A   Clear
10:55 PM 66.2 °F - 64.4 °F 94% 30.12 in 7.0 mi Calm Calm - N/A   Clear
11:15 PM 66.2 °F - 64.4 °F 94% 30.12 in 7.0 mi Calm Calm - N/A   Clear
11:35 PM 66.2 °F - 64.4 °F 94% 30.12 in 8.0 mi Calm Calm - N/A   Clear
11:55 PM 66.2 °F - 64.4 °F 94% 30.13 in 7.0 mi Calm Calm - N/A   Clear